Time,TemperatureF,DewpointF,PressureIn,WindDirection,WindDirectionDegrees,WindSpeedMPH,WindSpeedGustMPH,Humidity,HourlyPrecipIn,Conditions,Clouds,dailyrainin,SoftwareType,DateUTC
2013-02-18 00:00:00,20.0,-1.0,30.00,NW,320,23.0,35.0,41,-99.99,,,-99.99,,2013-02-18 05:00:00,
2013-02-18 00:21:00,20.0,-1.0,30.00,NW,320,23.0,35.0,41,-99.99,,,-99.99,,2013-02-18 05:21:00,
2013-02-18 00:32:00,20.0,-1.0,30.00,NW,320,23.0,35.0,41,-99.99,,,-99.99,,2013-02-18 05:32:00,
2013-02-18 00:42:00,20.0,-1.0,30.00,NW,320,23.0,35.0,41,-99.99,,,-99.99,,2013-02-18 05:42:00,
2013-02-18 00:52:00,20.0,-1.0,30.00,NW,320,23.0,35.0,41,-99.99,,,-99.99,,2013-02-18 05:52:00,
2013-02-18 01:00:00,20.0,-1.0,30.00,WNW,290,17.0,38.0,42,-99.99,,,-99.99,,2013-02-18 06:00:00,
2013-02-18 01:32:00,20.0,-1.0,30.00,WNW,290,17.0,38.0,42,-99.99,,,-99.99,,2013-02-18 06:32:00,
2013-02-18 01:42:00,20.0,-1.0,30.00,WNW,290,17.0,38.0,42,-99.99,,,-99.99,,2013-02-18 06:42:00,
2013-02-18 01:52:00,20.0,-1.0,30.00,WNW,290,17.0,38.0,42,-99.99,,,-99.99,,2013-02-18 06:52:00,
2013-02-18 02:00:00,20.0,-1.0,30.03,West,281,24.0,36.0,42,-99.99,,,-99.99,,2013-02-18 07:00:00,
2013-02-18 02:22:00,20.0,-1.0,30.03,West,281,24.0,36.0,42,-99.99,,,-99.99,,2013-02-18 07:22:00,
2013-02-18 02:32:00,20.0,-1.0,30.03,West,281,24.0,36.0,42,-99.99,,,-99.99,,2013-02-18 07:32:00,
2013-02-18 02:42:00,20.0,-1.0,30.03,West,281,24.0,36.0,42,-99.99,,,-99.99,,2013-02-18 07:42:00,
2013-02-18 02:52:00,20.0,-1.0,30.03,West,281,24.0,36.0,42,-99.99,,,-99.99,,2013-02-18 07:52:00,
2013-02-18 03:00:00,19.0,-1.0,30.03,West,281,21.0,35.0,43,-99.99,,,-99.99,,2013-02-18 08:00:00,
2013-02-18 03:22:00,19.0,-1.0,30.03,West,281,21.0,35.0,43,-99.99,,,-99.99,,2013-02-18 08:22:00,
2013-02-18 03:33:00,19.0,-1.0,30.03,West,281,21.0,35.0,43,-99.99,,,-99.99,,2013-02-18 08:33:00,
2013-02-18 03:42:00,19.0,-1.0,30.03,West,281,21.0,35.0,43,-99.99,,,-99.99,,2013-02-18 08:42:00,
2013-02-18 03:52:00,19.0,-1.0,30.03,West,281,21.0,35.0,43,-99.99,,,-99.99,,2013-02-18 08:52:00,
2013-02-18 04:00:00,19.0,-1.0,30.06,WNW,286,15.0,41.0,45,-99.99,,,-99.99,,2013-02-18 09:00:00,
2013-02-18 04:22:00,19.0,-1.0,30.06,WNW,286,15.0,41.0,45,-99.99,,,-99.99,,2013-02-18 09:22:00,
2013-02-18 04:32:00,19.0,-1.0,30.06,WNW,286,15.0,41.0,45,-99.99,,,-99.99,,2013-02-18 09:32:00,
2013-02-18 04:42:00,19.0,-1.0,30.06,WNW,286,15.0,41.0,45,-99.99,,,-99.99,,2013-02-18 09:42:00,
2013-02-18 04:52:00,19.0,-1.0,30.06,WNW,286,15.0,41.0,45,-99.99,,,-99.99,,2013-02-18 09:52:00,
2013-02-18 05:00:00,18.0,-1.0,30.09,WNW,300,21.0,32.0,46,-99.99,,,-99.99,,2013-02-18 10:00:00,
2013-02-18 05:22:00,18.0,-1.0,30.09,WNW,300,21.0,32.0,46,-99.99,,,-99.99,,2013-02-18 10:22:00,
2013-02-18 05:32:00,18.0,-1.0,30.09,WNW,300,21.0,32.0,46,-99.99,,,-99.99,,2013-02-18 10:32:00,
2013-02-18 05:42:00,18.0,-1.0,30.09,WNW,300,21.0,32.0,46,-99.99,,,-99.99,,2013-02-18 10:42:00,
2013-02-18 05:53:00,18.0,-1.0,30.09,WNW,300,21.0,32.0,46,-99.99,,,-99.99,,2013-02-18 10:53:00,
2013-02-18 06:00:00,18.0,-1.0,30.12,WNW,294,22.0,35.0,46,-99.99,,,-99.99,,2013-02-18 11:00:00,
2013-02-18 06:33:00,18.0,-1.0,30.12,WNW,294,22.0,35.0,46,-99.99,,,-99.99,,2013-02-18 11:33:00,
2013-02-18 06:43:00,18.0,-1.0,30.12,WNW,294,22.0,35.0,46,-99.99,,,-99.99,,2013-02-18 11:43:00,
2013-02-18 06:53:00,18.0,-1.0,30.12,WNW,294,22.0,35.0,46,-99.99,,,-99.99,,2013-02-18 11:53:00,
2013-02-18 07:00:00,18.0,0.0,30.18,WNW,289,10.0,31.0,49,-99.99,,,-99.99,,2013-02-18 12:00:00,
2013-02-18 07:22:00,18.0,0.0,30.18,WNW,289,10.0,31.0,49,-99.99,,,-99.99,,2013-02-18 12:22:00,
2013-02-18 07:32:00,18.0,0.0,30.18,WNW,289,10.0,31.0,49,-99.99,,,-99.99,,2013-02-18 12:32:00,
2013-02-18 07:42:00,18.0,0.0,30.18,WNW,289,10.0,31.0,49,-99.99,,,-99.99,,2013-02-18 12:42:00,
2013-02-18 07:54:00,18.0,0.0,30.18,WNW,289,10.0,31.0,49,-99.99,,,-99.99,,2013-02-18 12:54:00,
2013-02-18 08:00:00,20.0,0.0,30.18,WNW,292,14.0,28.0,45,-99.99,,,-99.99,,2013-02-18 13:00:00,
2013-02-18 08:23:00,20.0,0.0,30.18,WNW,292,14.0,28.0,45,-99.99,,,-99.99,,2013-02-18 13:23:00,
2013-02-18 08:33:00,20.0,0.0,30.18,WNW,292,14.0,28.0,45,-99.99,,,-99.99,,2013-02-18 13:33:00,
2013-02-18 08:42:00,20.0,0.0,30.18,WNW,292,14.0,28.0,45,-99.99,,,-99.99,,2013-02-18 13:42:00,
2013-02-18 09:00:00,22.0,2.0,30.24,West,280,21.0,31.0,45,-99.99,,,-99.99,,2013-02-18 14:00:00,
2013-02-18 09:34:00,22.0,2.0,30.24,West,280,21.0,31.0,45,-99.99,,,-99.99,,2013-02-18 14:34:00,
2013-02-18 09:42:00,22.0,2.0,30.24,West,280,21.0,31.0,45,-99.99,,,-99.99,,2013-02-18 14:42:00,
2013-02-18 09:54:00,22.0,2.0,30.24,West,280,21.0,31.0,45,-99.99,,,-99.99,,2013-02-18 14:54:00,
2013-02-18 10:00:00,24.0,3.0,30.24,NW,318,13.0,25.0,41,-99.99,,,-99.99,,2013-02-18 15:00:00,
2013-02-18 10:22:00,24.0,3.0,30.24,NW,318,13.0,25.0,41,-99.99,,,-99.99,,2013-02-18 15:22:00,
2013-02-18 10:32:00,24.0,3.0,30.24,NW,318,13.0,25.0,41,-99.99,,,-99.99,,2013-02-18 15:32:00,
2013-02-18 10:42:00,24.0,3.0,30.24,NW,318,13.0,25.0,41,-99.99,,,-99.99,,2013-02-18 15:42:00,
2013-02-18 10:53:00,24.0,3.0,30.24,NW,318,13.0,25.0,41,-99.99,,,-99.99,,2013-02-18 15:53:00,
2013-02-18 11:00:00,27.0,4.0,30.24,WNW,301,17.0,22.0,37,-99.99,,,-99.99,,2013-02-18 16:00:00,
2013-02-18 11:22:00,27.0,4.0,30.24,WNW,301,17.0,22.0,37,-99.99,,,-99.99,,2013-02-18 16:22:00,
2013-02-18 11:33:00,27.0,4.0,30.24,WNW,301,17.0,22.0,37,-99.99,,,-99.99,,2013-02-18 16:33:00,
2013-02-18 11:43:00,27.0,4.0,30.24,WNW,301,17.0,22.0,37,-99.99,,,-99.99,,2013-02-18 16:43:00,
2013-02-18 11:53:00,27.0,4.0,30.24,WNW,301,17.0,22.0,37,-99.99,,,-99.99,,2013-02-18 16:53:00,
2013-02-18 12:00:00,30.0,5.0,30.24,WNW,297,15.0,23.0,34,-99.99,,,-99.99,,2013-02-18 17:00:00,
2013-02-18 12:22:00,30.0,5.0,30.24,WNW,297,15.0,23.0,34,-99.99,,,-99.99,,2013-02-18 17:22:00,
2013-02-18 12:33:00,30.0,5.0,30.24,WNW,297,15.0,23.0,34,-99.99,,,-99.99,,2013-02-18 17:33:00,
2013-02-18 12:43:00,30.0,5.0,30.24,WNW,297,15.0,23.0,34,-99.99,,,-99.99,,2013-02-18 17:43:00,
2013-02-18 12:53:00,30.0,5.0,30.24,WNW,297,15.0,23.0,34,-99.99,,,-99.99,,2013-02-18 17:53:00,
2013-02-18 13:00:00,31.0,5.0,30.21,West,280,20.0,26.0,33,-99.99,,,-99.99,,2013-02-18 18:00:00,
2013-02-18 13:23:00,31.0,5.0,30.21,West,280,20.0,26.0,33,-99.99,,,-99.99,,2013-02-18 18:23:00,
2013-02-18 13:33:00,31.0,5.0,30.21,West,280,20.0,26.0,33,-99.99,,,-99.99,,2013-02-18 18:33:00,
2013-02-18 13:43:00,31.0,5.0,30.21,West,280,20.0,26.0,33,-99.99,,,-99.99,,2013-02-18 18:43:00,
2013-02-18 13:53:00,31.0,5.0,30.21,West,280,20.0,26.0,33,-99.99,,,-99.99,,2013-02-18 18:53:00,
2013-02-18 14:00:00,34.0,8.0,30.18,NW,308,11.0,23.0,33,-99.99,,,-99.99,,2013-02-18 19:00:00,
2013-02-18 14:23:00,34.0,8.0,30.18,NW,308,11.0,23.0,33,-99.99,,,-99.99,,2013-02-18 19:23:00,
2013-02-18 14:34:00,34.0,8.0,30.18,NW,308,11.0,23.0,33,-99.99,,,-99.99,,2013-02-18 19:34:00,
2013-02-18 14:43:00,34.0,8.0,30.18,NW,308,11.0,23.0,33,-99.99,,,-99.99,,2013-02-18 19:43:00,
2013-02-18 14:53:00,34.0,8.0,30.18,NW,308,11.0,23.0,33,-99.99,,,-99.99,,2013-02-18 19:53:00,
2013-02-18 15:00:00,36.0,8.0,30.18,West,274,11.0,20.0,31,-99.99,,,-99.99,,2013-02-18 20:00:00,
2013-02-18 15:23:00,36.0,8.0,30.18,West,274,11.0,20.0,31,-99.99,,,-99.99,,2013-02-18 20:23:00,
2013-02-18 15:33:00,36.0,8.0,30.18,West,274,11.0,20.0,31,-99.99,,,-99.99,,2013-02-18 20:33:00,
2013-02-18 15:53:00,36.0,8.0,30.18,West,274,11.0,20.0,31,-99.99,,,-99.99,,2013-02-18 20:53:00,
2013-02-18 16:00:00,36.0,8.0,30.18,West,261,12.0,21.0,30,-99.99,,,-99.99,,2013-02-18 21:00:00,
2013-02-18 16:22:00,36.0,8.0,30.18,West,261,12.0,21.0,30,-99.99,,,-99.99,,2013-02-18 21:22:00,
2013-02-18 16:33:00,36.0,8.0,30.18,West,261,12.0,21.0,30,-99.99,,,-99.99,,2013-02-18 21:33:00,
2013-02-18 16:43:00,36.0,8.0,30.18,West,261,12.0,21.0,30,-99.99,,,-99.99,,2013-02-18 21:43:00,
2013-02-18 16:53:00,36.0,8.0,30.18,West,261,12.0,21.0,30,-99.99,,,-99.99,,2013-02-18 21:53:00,
2013-02-18 17:00:00,35.0,9.0,30.18,WSW,247,7.0,20.0,33,-99.99,,,-99.99,,2013-02-18 22:00:00,
2013-02-18 17:23:00,35.0,9.0,30.18,WSW,247,7.0,20.0,33,-99.99,,,-99.99,,2013-02-18 22:23:00,
2013-02-18 17:33:00,35.0,9.0,30.18,WSW,247,7.0,20.0,33,-99.99,,,-99.99,,2013-02-18 22:33:00,
2013-02-18 17:43:00,35.0,9.0,30.18,WSW,247,7.0,20.0,33,-99.99,,,-99.99,,2013-02-18 22:43:00,
2013-02-18 17:54:00,35.0,9.0,30.18,WSW,247,7.0,20.0,33,-99.99,,,-99.99,,2013-02-18 22:54:00,
2013-02-18 18:00:00,34.0,9.0,30.21,WSW,240,4.0,16.0,34,-99.99,,,-99.99,,2013-02-18 23:00:00,
2013-02-18 18:23:00,34.0,9.0,30.21,WSW,240,4.0,16.0,34,-99.99,,,-99.99,,2013-02-18 23:23:00,
2013-02-18 18:34:00,34.0,9.0,30.21,WSW,240,4.0,16.0,34,-99.99,,,-99.99,,2013-02-18 23:34:00,
2013-02-18 18:43:00,34.0,9.0,30.21,WSW,240,4.0,16.0,34,-99.99,,,-99.99,,2013-02-18 23:43:00,
2013-02-18 18:54:00,34.0,9.0,30.21,WSW,240,4.0,16.0,34,-99.99,,,-99.99,,2013-02-18 23:54:00,
2013-02-18 19:00:00,32.0,10.0,30.21,WSW,249,6.0,9.0,39,-99.99,,,-99.99,,2013-02-19 00:00:00,
2013-02-18 19:36:00,32.0,10.0,30.21,WSW,249,6.0,9.0,39,-99.99,,,-99.99,,2013-02-19 00:36:00,
2013-02-18 19:44:00,32.0,10.0,30.21,WSW,249,6.0,9.0,39,-99.99,,,-99.99,,2013-02-19 00:44:00,
2013-02-18 19:55:00,32.0,10.0,30.21,WSW,249,6.0,9.0,39,-99.99,,,-99.99,,2013-02-19 00:55:00,
2013-02-18 20:00:00,31.0,12.0,30.21,WSW,241,4.0,9.0,44,-99.99,,,-99.99,,2013-02-19 01:00:00,
2013-02-18 20:25:00,31.0,12.0,30.21,WSW,241,4.0,9.0,44,-99.99,,,-99.99,,2013-02-19 01:25:00,
2013-02-18 20:35:00,31.0,12.0,30.21,WSW,241,4.0,9.0,44,-99.99,,,-99.99,,2013-02-19 01:35:00,
2013-02-18 20:45:00,31.0,12.0,30.21,WSW,241,4.0,9.0,44,-99.99,,,-99.99,,2013-02-19 01:45:00,
2013-02-18 20:56:00,31.0,12.0,30.21,WSW,241,4.0,9.0,44,-99.99,,,-99.99,,2013-02-19 01:56:00,
2013-02-18 21:00:00,31.0,11.0,30.21,SW,218,8.0,10.0,43,-99.99,,,-99.99,,2013-02-19 02:00:00,
2013-02-18 21:23:00,31.0,11.0,30.21,SW,218,8.0,10.0,43,-99.99,,,-99.99,,2013-02-19 02:23:00,
2013-02-18 21:35:00,31.0,11.0,30.21,SW,218,8.0,10.0,43,-99.99,,,-99.99,,2013-02-19 02:35:00,
2013-02-18 21:44:00,31.0,11.0,30.21,SW,218,8.0,10.0,43,-99.99,,,-99.99,,2013-02-19 02:44:00,
2013-02-18 21:55:00,31.0,11.0,30.21,SW,218,8.0,10.0,43,-99.99,,,-99.99,,2013-02-19 02:55:00,
2013-02-18 22:00:00,31.0,12.0,30.21,SSW,211,4.0,11.0,45,-99.99,,,-99.99,,2013-02-19 03:00:00,
2013-02-18 22:25:00,31.0,12.0,30.21,SSW,211,4.0,11.0,45,-99.99,,,-99.99,,2013-02-19 03:25:00,
2013-02-18 22:35:00,31.0,12.0,30.21,SSW,211,4.0,11.0,45,-99.99,,,-99.99,,2013-02-19 03:35:00,
2013-02-18 22:45:00,31.0,12.0,30.21,SSW,211,4.0,11.0,45,-99.99,,,-99.99,,2013-02-19 03:45:00,
2013-02-18 22:55:00,31.0,12.0,30.21,SSW,211,4.0,11.0,45,-99.99,,,-99.99,,2013-02-19 03:55:00,
2013-02-18 23:00:00,30.0,13.0,30.21,SSW,204,5.0,8.0,50,-99.99,,,-99.99,,2013-02-19 04:00:00,
2013-02-18 23:24:00,30.0,13.0,30.21,SSW,204,5.0,8.0,50,-99.99,,,-99.99,,2013-02-19 04:24:00,
2013-02-18 23:34:00,30.0,13.0,30.21,SSW,204,5.0,8.0,50,-99.99,,,-99.99,,2013-02-19 04:34:00,
2013-02-18 23:45:00,30.0,13.0,30.21,SSW,204,5.0,8.0,50,-99.99,,,-99.99,,2013-02-19 04:45:00,
2013-02-18 23:55:00,30.0,13.0,30.21,SSW,204,5.0,8.0,50,-99.99,,,-99.99,,2013-02-19 04:55:00,